Simultaneous Nadir Overpasses (SNOs) Predictions

Prediction of SNOs between GOES-17 and NOAA-19 Satellite Orbit:

Table of predicted SNOs for the next 14.0 days since TLE Epoch: 3/12/2022
Index Date Time (GOES-17) GOES-17 Lat,Lon NOAA-19 Lat,Lon Distance(km) Time Diff (sec)
1 03/12/2022 16:46:03 0.01,-137.21 0.11,-137.73 58.99 80
2 03/13/2022 16:31:35 0.01,-137.21 -0.54,-134.85 269.64 80
3 03/16/2022 04:55:06 -0.03,-137.19 -0.63,-139.78 295.85 80
4 03/17/2022 04:40:37 -0.02,-137.18 0.02,-136.90 32.34 80
5 03/18/2022 04:28:50 -0.02,-137.18 0.74,-134.03 360.33 80
6 03/20/2022 16:49:21 0.02,-137.16 0.45,-138.87 196.49 80
7 03/21/2022 16:40:13 0.02,-137.15 -0.26,-136.01 130.90 80
8 03/22/2022 16:28:25 0.02,-137.13 -0.92,-133.12 457.94 80
9 03/24/2022 05:01:03 -0.02,-137.10 -0.92,-140.93 438.13 80
10 03/25/2022 04:49:15 -0.02,-137.07 -0.26,-138.05 111.64 80
